2023/03/08 00:00:00,60.7, 5.2
2023/03/08 00:10:00,60.8, 5.0
2023/03/08 00:20:00,60.7, 5.0
2023/03/08 00:30:00,60.7, 5.3
2023/03/08 00:40:00,60.7, 5.0
2023/03/08 00:50:00,60.7, 4.8
2023/03/08 01:00:00,60.8, 5.4
2023/03/08 01:10:00,60.8, 5.3
2023/03/08 01:20:00,60.8, 5.0
2023/03/08 01:30:00,60.8, 5.2
2023/03/08 01:40:00,60.8, 5.5
2023/03/08 01:50:00,60.8, 5.5
2023/03/08 02:00:00,60.8, 5.3
2023/03/08 02:10:00,60.8, 5.3
2023/03/08 02:20:00,60.8, 5.3
2023/03/08 02:30:00,60.8, 5.2
2023/03/08 02:40:00,60.7, 5.4
2023/03/08 02:50:00,60.8, 5.1
2023/03/08 03:00:00,60.7, 5.3
2023/03/08 03:10:00,60.7, 5.1
2023/03/08 03:20:00,60.7, 5.3
2023/03/08 03:30:00,60.8, 5.4
2023/03/08 03:40:00,60.7, 5.3
2023/03/08 03:50:00,60.7, 5.2
2023/03/08 04:00:00,60.7, 5.5
2023/03/08 04:10:00,60.7, 5.3
2023/03/08 04:20:00,60.7, 5.3
2023/03/08 04:30:00,60.7, 5.3
2023/03/08 04:40:00,60.7, 5.2
2023/03/08 04:50:00,60.7, 5.1
2023/03/08 05:00:00,60.7, 5.2
2023/03/08 05:10:00,60.7, 5.1
2023/03/08 05:20:00,60.7, 5.0
2023/03/08 05:30:00,60.9, 5.1
2023/03/08 05:40:00,60.8, 5.3
2023/03/08 05:50:00,60.8, 5.0
2023/03/08 06:00:00,60.8, 5.0
2023/03/08 06:10:00,60.8, 5.1
2023/03/08 06:20:00,60.8, 4.9
2023/03/08 06:30:00,60.7, 5.3
2023/03/08 06:40:00,60.7, 5.2
2023/03/08 06:50:00,60.8, 5.1
2023/03/08 07:00:00,60.8, 5.1
2023/03/08 07:10:00,60.8, 5.1
2023/03/08 07:20:00,60.8, 5.3
2023/03/08 07:30:00,60.6, 5.5
2023/03/08 07:40:00,60.6, 5.7
2023/03/08 07:50:00,60.5, 5.8
2023/03/08 08:00:00,60.4, 6.0
2023/03/08 08:10:00,60.3, 6.4
2023/03/08 08:20:00,60.2, 6.6
2023/03/08 08:30:00,59.9, 7.0
2023/03/08 08:40:00,59.7, 8.2
2023/03/08 08:50:00,59.7, 8.0
2023/03/08 09:00:00,59.6, 8.5
2023/03/08 09:10:00,59.4, 9.0
2023/03/08 09:20:00,59.4,10.0
2023/03/08 09:30:00,59.6,11.0
2023/03/08 09:40:00,60.3,10.6
2023/03/08 09:50:00,59.6,12.0
2023/03/08 10:00:00,58.8,13.7
2023/03/08 10:10:00,58.4,15.0
2023/03/08 10:20:00,58.5,14.6
2023/03/08 10:30:00,58.3,15.3
2023/03/08 10:40:00,---,15.5
2023/03/08 10:50:00,17.2,15.4
2023/03/08 11:00:00,17.1,15.7
2023/03/08 11:10:00,58.2,15.4
2023/03/08 11:20:00,58.2,16.3
2023/03/08 11:30:00,58.5,14.8
2023/03/08 11:40:00,58.3,14.8
2023/03/08 11:50:00,58.7,16.8
2023/03/08 12:00:00,58.8,17.1
2023/03/08 12:10:00,58.9,17.9
2023/03/08 12:20:00,58.8,18.9
2023/03/08 12:30:00,58.5,18.6
2023/03/08 12:40:00,58.5,19.2
2023/03/08 12:50:00,58.6,18.7
2023/03/08 13:00:00,33.4,19.1
2023/03/08 13:10:00,17.0,18.1
2023/03/08 13:20:00,---,17.8
2023/03/08 13:30:00,16.3,19.1
2023/03/08 13:40:00, 0.0,18.9
2023/03/08 13:50:00,---,19.5
2023/03/08 14:00:00, 8.1,19.4
2023/03/08 14:10:00, 7.8,18.2
2023/03/08 14:20:00, 0.0,19.1
2023/03/08 14:30:00,31.6,17.7
2023/03/08 14:40:00,56.8,16.0
2023/03/08 14:50:00,57.0,13.8
2023/03/08 15:00:00,56.3,16.0
2023/03/08 15:10:00,55.9,16.8
2023/03/08 15:20:00,56.1,15.0
2023/03/08 15:30:00,56.0,16.7
2023/03/08 15:40:00,56.0,16.9
2023/03/08 15:50:00,55.9,16.7
2023/03/08 16:00:00,56.0,14.8
2023/03/08 16:10:00,55.8,13.7
2023/03/08 16:20:00,55.9,12.9
2023/03/08 16:30:00,56.2,11.6
2023/03/08 16:40:00,56.3,10.9
2023/03/08 16:50:00,56.8,10.2
2023/03/08 17:00:00,56.8, 8.9
2023/03/08 17:10:00,57.0, 8.9
2023/03/08 17:20:00,56.4, 8.8
2023/03/08 17:30:00,56.4, 8.5
2023/03/08 17:40:00,56.2, 7.8
2023/03/08 17:50:00,56.2, 7.4
2023/03/08 18:00:00,55.9, 7.1
2023/03/08 18:10:00,55.6, 7.0
2023/03/08 18:20:00,55.7, 6.5
2023/03/08 18:30:00,55.5, 6.0
2023/03/08 18:40:00,55.4, 5.8
2023/03/08 18:50:00,55.5, 5.5
2023/03/08 19:00:00,55.4, 5.7
2023/03/08 19:10:00,55.4, 5.7
2023/03/08 19:20:00,55.5, 5.3
2023/03/08 19:30:00,55.4, 5.7
2023/03/08 19:40:00,55.3, 5.7
2023/03/08 19:50:00,55.3, 6.0
2023/03/08 20:00:00,55.3, 6.4
2023/03/08 20:10:00,55.3, 5.7
2023/03/08 20:20:00,55.3, 5.8
2023/03/08 20:30:00,55.2, 5.4
2023/03/08 20:40:00,55.2, 5.0
2023/03/08 20:50:00,55.2, 5.2
2023/03/08 21:00:00,55.2, 5.3
2023/03/08 21:10:00,55.2, 5.4
2023/03/08 21:20:00,55.2, 5.3
2023/03/08 21:30:00,55.0, 5.5
2023/03/08 21:40:00,55.0, 5.7
2023/03/08 21:50:00,55.1, 5.8
2023/03/08 22:00:00,55.0, 5.4
2023/03/08 22:10:00,55.0, 5.6
2023/03/08 22:20:00,55.1, 5.3
2023/03/08 22:30:00,55.1, 5.4
2023/03/08 22:40:00,55.0, 5.4
2023/03/08 22:50:00,55.0, 5.7
2023/03/08 23:00:00,55.0, 5.7
2023/03/08 23:10:00,55.0, 5.8
2023/03/08 23:20:00,55.0, 6.3
2023/03/08 23:30:00,54.9, 6.6
2023/03/08 23:40:00,54.9, 6.8
2023/03/08 23:50:00,54.9, 7.2
